Orbital Elements at Epoch 2459000.5 (2020-May-31.0) TDB
Reference: JPL 21 (heliocentric ecliptic J2000)
Element | Value | Uncertainty (1-sigma) | Units |
e | .01929870993997574 | 4.4619e-08 | |
a | 2.537660164444752 | 2.1375e-08 | au |
q | 2.488686597004901 | 1.1512e-07 | au |
i | 11.4450754562812 | 5.4278e-06 | deg |
node | 112.8298176460848 | 2.056e-05 | deg |
peri | 146.7177111376861 | 0.00012478 | deg |
M | 255.13819183177 | 0.00012451 | deg |
tp | 2459430.594076914900 (2021-Aug-04.09407691) | 0.0005116 | TDB |
period | 1476.551571959962 4.04 | 1.8656e-05 5.108e-08 | d yr |
n | .2438113282573253 | 3.0805e-09 | deg/d |
Q | 2.586633731884602 | 2.1788e-08 | au |
|
| | Orbit Determination Parameters
Additional Information
|